EKA9009 PANC-PARC

Flight info

Callsign EKA9009
Flight time N/A
Altitude 10000
Route FAI
Aircraft DC3/M-SDF/S

Departure

Time N/A
Airport Ted Stevens Anchorage International Airport (PANC)

Arrival

Time 2026-05-05 22:17
Airport Arctic Village Airport (PARC)
Time Latitude Longitude Altitude Speed Heading
2026-05-05 21:12 65.31100 -147.65944 12000 ft 171 kts 19°
2026-05-05 21:13 65.32243 -147.65190 12000 ft 171 kts 19°
2026-05-05 21:13 65.33388 -147.64435 12001 ft 171 kts 19°
2026-05-05 21:13 65.34534 -147.63677 12000 ft 170 kts 19°
2026-05-05 21:13 65.35677 -147.62918 12000 ft 171 kts 19°
2026-05-05 21:14 65.36819 -147.62161 12000 ft 170 kts 19°
2026-05-05 21:14 65.37964 -147.61402 12000 ft 170 kts 19°
2026-05-05 21:14 65.39110 -147.60642 11995 ft 171 kts 19°
2026-05-05 21:14 65.40253 -147.59883 11994 ft 171 kts 19°
2026-05-05 21:15 65.41395 -147.59124 11998 ft 170 kts 19°
2026-05-05 21:15 65.42534 -147.58366 12000 ft 170 kts 19°
2026-05-05 21:15 65.43675 -147.57606 12000 ft 170 kts 19°
2026-05-05 21:15 65.44802 -147.56856 12000 ft 170 kts 19°
2026-05-05 21:16 65.45942 -147.56097 12000 ft 170 kts 19°
2026-05-05 21:16 65.47079 -147.55340 12000 ft 170 kts 19°
2026-05-05 21:16 65.48221 -147.54579 12001 ft 170 kts 19°
2026-05-05 21:16 65.49363 -147.53815 12002 ft 170 kts 19°
2026-05-05 21:17 65.50502 -147.53052 12000 ft 170 kts 19°
2026-05-05 21:17 65.51641 -147.52289 12000 ft 170 kts 19°
2026-05-05 21:17 65.52783 -147.51525 12001 ft 170 kts 19°
2026-05-05 21:17 65.53923 -147.50760 12001 ft 170 kts 19°
2026-05-05 21:18 65.55062 -147.49996 12001 ft 170 kts 19°
2026-05-05 21:18 65.56184 -147.49242 12000 ft 170 kts 19°
2026-05-05 21:18 65.57335 -147.48467 12000 ft 170 kts 19°
2026-05-05 21:18 65.58472 -147.47700 12000 ft 170 kts 20°
2026-05-05 21:19 65.59595 -147.46943 12000 ft 170 kts 19°
2026-05-05 21:19 65.60732 -147.46177 11999 ft 170 kts 19°
2026-05-05 21:19 65.61870 -147.45412 12000 ft 170 kts 19°
2026-05-05 21:19 65.63006 -147.44647 11998 ft 169 kts 19°
2026-05-05 21:20 65.64143 -147.43881 12001 ft 169 kts 19°
2026-05-05 21:20 65.65280 -147.43113 12001 ft 169 kts 19°
2026-05-05 21:20 65.66415 -147.42346 12002 ft 169 kts 19°
2026-05-05 21:20 65.67552 -147.41576 12002 ft 169 kts 19°
2026-05-05 21:21 65.68688 -147.40806 12001 ft 169 kts 20°
2026-05-05 21:21 65.69823 -147.40034 12000 ft 169 kts 20°
2026-05-05 21:21 65.70958 -147.39261 12001 ft 169 kts 20°
2026-05-05 21:21 65.72093 -147.38489 12001 ft 169 kts 20°
2026-05-05 21:22 65.73229 -147.37714 12000 ft 169 kts 20°
2026-05-05 21:22 65.74352 -147.36947 12000 ft 169 kts 20°
2026-05-05 21:22 65.75489 -147.36170 12001 ft 169 kts 20°
2026-05-05 21:22 65.76623 -147.35395 11997 ft 169 kts 20°
2026-05-05 21:23 65.77759 -147.34619 12000 ft 169 kts 20°
2026-05-05 21:23 65.78891 -147.33845 12001 ft 169 kts 20°
2026-05-05 21:23 65.80027 -147.33066 12001 ft 169 kts 20°
2026-05-05 21:23 65.81164 -147.32286 12001 ft 169 kts 20°
2026-05-05 21:24 65.82297 -147.31508 12000 ft 169 kts 20°
2026-05-05 21:24 65.83432 -147.30727 12002 ft 169 kts 20°
2026-05-05 21:24 65.84567 -147.29947 12003 ft 169 kts 20°
2026-05-05 21:24 65.85702 -147.29167 12002 ft 170 kts 20°
2026-05-05 21:25 65.86840 -147.28385 12004 ft 170 kts 20°
2026-05-05 21:25 65.87977 -147.27602 12003 ft 170 kts 20°
2026-05-05 21:25 65.89111 -147.26821 12003 ft 170 kts 20°
2026-05-05 21:25 65.90233 -147.26047 12004 ft 169 kts 20°
2026-05-05 21:26 65.91368 -147.25263 12005 ft 170 kts 20°
2026-05-05 21:26 65.92502 -147.24480 12005 ft 170 kts 20°
2026-05-05 21:26 65.93639 -147.23694 12005 ft 169 kts 20°
2026-05-05 21:26 65.94777 -147.22906 12006 ft 169 kts 20°
2026-05-05 21:27 65.95911 -147.22120 12003 ft 170 kts 20°
2026-05-05 21:27 65.97047 -147.21331 12001 ft 170 kts 20°
2026-05-05 21:27 65.98184 -147.20542 12003 ft 169 kts 20°
2026-05-05 21:27 65.99316 -147.19756 12007 ft 169 kts 20°
2026-05-05 21:28 66.00450 -147.18969 12009 ft 169 kts 21°
2026-05-05 21:28 66.01582 -147.18182 12005 ft 169 kts 21°
2026-05-05 21:28 66.02697 -147.17398 12001 ft 169 kts 21°
2026-05-05 21:28 66.03824 -147.16606 12001 ft 168 kts 21°
2026-05-05 21:29 66.04947 -147.15817 12001 ft 168 kts 21°
2026-05-05 21:29 66.06073 -147.15027 12000 ft 168 kts 21°
2026-05-05 21:29 66.07192 -147.14242 12001 ft 168 kts 21°
2026-05-05 21:29 66.08317 -147.13452 12001 ft 168 kts 21°
2026-05-05 21:30 66.09438 -147.12665 12001 ft 168 kts 21°
2026-05-05 21:30 66.10562 -147.11875 12001 ft 168 kts 21°
2026-05-05 21:30 66.11685 -147.11085 12001 ft 168 kts 21°
2026-05-05 21:30 66.12806 -147.10295 12001 ft 168 kts 21°
2026-05-05 21:31 66.13929 -147.09505 12000 ft 168 kts 21°
2026-05-05 21:31 66.15053 -147.08713 11999 ft 168 kts 21°
2026-05-05 21:31 66.16174 -147.07922 12000 ft 168 kts 21°
2026-05-05 21:31 66.17279 -147.07141 12001 ft 167 kts 21°
2026-05-05 21:32 66.18399 -147.06349 12001 ft 167 kts 21°
2026-05-05 21:32 66.19520 -147.05557 12002 ft 167 kts 21°
2026-05-05 21:32 66.20638 -147.04766 12004 ft 167 kts 21°
2026-05-05 21:32 66.21759 -147.03972 12003 ft 167 kts 21°
2026-05-05 21:33 66.22877 -147.03180 12003 ft 167 kts 21°
2026-05-05 21:33 66.23998 -147.02385 12004 ft 167 kts 21°
2026-05-05 21:33 66.25117 -147.01589 12002 ft 167 kts 21°
2026-05-05 21:33 66.26237 -147.00790 12001 ft 167 kts 21°
2026-05-05 21:34 66.27359 -146.99990 12001 ft 167 kts 21°
2026-05-05 21:34 66.28478 -146.99192 12000 ft 167 kts 21°
2026-05-05 21:34 66.29599 -146.98393 12001 ft 167 kts 21°
2026-05-05 21:34 66.30718 -146.97594 12001 ft 167 kts 21°
2026-05-05 21:35 66.31840 -146.96793 12001 ft 167 kts 21°
2026-05-05 21:35 66.32956 -146.95995 12002 ft 167 kts 21°
2026-05-05 21:35 66.34063 -146.95204 12002 ft 167 kts 21°
2026-05-05 21:35 66.35180 -146.94404 12002 ft 167 kts 21°
2026-05-05 21:36 66.36302 -146.93600 12003 ft 167 kts 21°
2026-05-05 21:36 66.37421 -146.92798 12003 ft 167 kts 21°
2026-05-05 21:36 66.38537 -146.91997 12004 ft 167 kts 21°
2026-05-05 21:36 66.39658 -146.91191 12004 ft 167 kts 21°
2026-05-05 21:37 66.40775 -146.90389 12004 ft 167 kts 21°
2026-05-05 21:37 66.41893 -146.89584 12005 ft 167 kts 21°
2026-05-05 21:37 66.43015 -146.88776 12005 ft 167 kts 21°
2026-05-05 21:37 66.44133 -146.87969 12005 ft 167 kts 21°
2026-05-05 21:38 66.45250 -146.87163 12006 ft 167 kts 21°
2026-05-05 21:38 66.46371 -146.86353 12006 ft 167 kts 21°
2026-05-05 21:38 66.47502 -146.85549 11938 ft 170 kts 20°
2026-05-05 21:38 66.48626 -146.84743 11989 ft 166 kts 21°
2026-05-05 21:39 66.49722 -146.83943 12003 ft 166 kts 21°
2026-05-05 21:39 66.50835 -146.83129 12007 ft 166 kts 21°
2026-05-05 21:39 66.51946 -146.82317 12007 ft 166 kts 21°
2026-05-05 21:39 66.53057 -146.81505 12007 ft 167 kts 21°
2026-05-05 21:40 66.54173 -146.80691 12008 ft 167 kts 21°
2026-05-05 21:40 66.55288 -146.79879 12008 ft 167 kts 21°
2026-05-05 21:40 66.56405 -146.79065 12008 ft 167 kts 21°
2026-05-05 21:40 66.57520 -146.78251 12008 ft 167 kts 21°
2026-05-05 21:41 66.58637 -146.77435 11998 ft 168 kts 21°
2026-05-05 21:41 66.59382 -146.76891 11993 ft 168 kts 21°
2026-05-05 21:41 66.60503 -146.76071 11991 ft 168 kts 21°
2026-05-05 21:41 66.61624 -146.75252 11990 ft 167 kts 21°
2026-05-05 21:42 66.63105 -146.74167 11990 ft 167 kts 21°
2026-05-05 21:42 66.63861 -146.73613 11990 ft 167 kts 21°
2026-05-05 21:42 66.64978 -146.72794 11990 ft 167 kts 21°
2026-05-05 21:42 66.66097 -146.71972 11990 ft 167 kts 21°
2026-05-05 21:43 66.67211 -146.71153 11989 ft 167 kts 21°
2026-05-05 21:43 66.68327 -146.70332 11989 ft 167 kts 21°
2026-05-05 21:43 66.69442 -146.69510 11989 ft 167 kts 21°
2026-05-05 21:43 66.70544 -146.68698 11989 ft 167 kts 21°
2026-05-05 21:44 66.71656 -146.67877 11989 ft 167 kts 21°
2026-05-05 21:44 66.72771 -146.67053 11988 ft 167 kts 21°
2026-05-05 21:44 66.73888 -146.66228 11988 ft 167 kts 21°
2026-05-05 21:44 66.75005 -146.65402 11988 ft 167 kts 21°
2026-05-05 21:45 66.76120 -146.64576 11987 ft 167 kts 21°
2026-05-05 21:45 66.77233 -146.63750 11987 ft 167 kts 21°
2026-05-05 21:45 66.78349 -146.62922 11987 ft 167 kts 21°
2026-05-05 21:45 66.79464 -146.62094 11986 ft 167 kts 21°
2026-05-05 21:46 66.80581 -146.61263 11987 ft 167 kts 21°
2026-05-05 21:46 66.81677 -146.60440 11994 ft 166 kts 21°
2026-05-05 21:46 66.82800 -146.59586 11998 ft 166 kts 21°
2026-05-05 21:46 66.83908 -146.58747 11999 ft 166 kts 21°
2026-05-05 21:47 66.85005 -146.57920 11998 ft 167 kts 21°
2026-05-05 21:47 66.86119 -146.57082 11998 ft 167 kts 21°
2026-05-05 21:47 66.87231 -146.56248 11997 ft 167 kts 21°
2026-05-05 21:47 66.88346 -146.55412 11996 ft 167 kts 21°
2026-05-05 21:48 66.89459 -146.54577 11996 ft 167 kts 21°
2026-05-05 21:48 66.90570 -146.53743 11995 ft 167 kts 21°
2026-05-05 21:48 66.91685 -146.52906 11994 ft 167 kts 21°
2026-05-05 21:48 66.92799 -146.52069 11993 ft 167 kts 21°
2026-05-05 21:49 66.93907 -146.51236 11992 ft 167 kts 21°
2026-05-05 21:49 66.95023 -146.50395 11991 ft 167 kts 21°
2026-05-05 21:49 66.96136 -146.49557 11990 ft 167 kts 21°
2026-05-05 21:49 66.97246 -146.48719 11989 ft 167 kts 21°
2026-05-05 21:50 66.98344 -146.47891 11988 ft 167 kts 21°
2026-05-05 21:50 66.99455 -146.47051 11987 ft 167 kts 21°
2026-05-05 21:50 67.00567 -146.46211 11986 ft 167 kts 21°
2026-05-05 21:50 67.01678 -146.45370 11985 ft 166 kts 21°
2026-05-05 21:51 67.02790 -146.44527 11984 ft 166 kts 21°
2026-05-05 21:51 67.03901 -146.43684 11982 ft 166 kts 21°
2026-05-05 21:51 67.05013 -146.42840 11981 ft 166 kts 21°
2026-05-05 21:51 67.06126 -146.41994 11980 ft 166 kts 21°
2026-05-05 21:52 67.08344 -146.40305 11977 ft 166 kts 21°
2026-05-05 21:52 67.09456 -146.39458 11975 ft 166 kts 21°
2026-05-05 21:52 67.10552 -146.38621 11974 ft 166 kts 21°
2026-05-05 21:53 67.11665 -146.37772 11972 ft 166 kts 21°
2026-05-05 21:53 67.12772 -146.36926 11971 ft 166 kts 21°
2026-05-05 21:53 67.13881 -146.36078 11969 ft 166 kts 21°
2026-05-05 21:53 67.14992 -146.35228 11967 ft 166 kts 21°
2026-05-05 21:54 67.16101 -146.34378 11966 ft 166 kts 21°
2026-05-05 21:54 67.17209 -146.33528 11964 ft 166 kts 21°
2026-05-05 21:54 67.18317 -146.32677 11962 ft 166 kts 21°
2026-05-05 21:54 67.19425 -146.31825 11960 ft 166 kts 21°
2026-05-05 21:55 67.20532 -146.30973 11958 ft 166 kts 21°
2026-05-05 21:55 67.21640 -146.30120 11956 ft 166 kts 21°
2026-05-05 21:55 67.22746 -146.29267 11954 ft 166 kts 21°
2026-05-05 21:55 67.23852 -146.28414 11952 ft 166 kts 21°
2026-05-05 21:56 67.24962 -146.27557 11950 ft 166 kts 21°
2026-05-05 21:56 67.26067 -146.26702 11948 ft 166 kts 21°
2026-05-05 21:56 67.27173 -146.25846 11945 ft 166 kts 21°
2026-05-05 21:56 67.28263 -146.25002 11943 ft 166 kts 21°
2026-05-05 21:57 67.29370 -146.24142 11941 ft 166 kts 20°
2026-05-05 21:57 67.30476 -146.23284 11939 ft 166 kts 20°
2026-05-05 21:57 67.31584 -146.22423 11936 ft 166 kts 20°
2026-05-05 21:57 67.32691 -146.21563 11934 ft 166 kts 20°
2026-05-05 21:58 67.33795 -146.20704 11932 ft 166 kts 20°
2026-05-05 21:58 67.34901 -146.19842 11929 ft 166 kts 20°
2026-05-05 21:58 67.36005 -146.18982 11927 ft 166 kts 20°
2026-05-05 21:58 67.37096 -146.18130 11924 ft 166 kts 20°
2026-05-05 21:59 67.38199 -146.17268 11922 ft 166 kts 20°
2026-05-05 21:59 67.39303 -146.16404 11919 ft 166 kts 20°
2026-05-05 21:59 67.40407 -146.15540 11917 ft 166 kts 20°
2026-05-05 21:59 67.41510 -146.14676 11914 ft 166 kts 20°
2026-05-05 22:00 67.42613 -146.13811 11912 ft 165 kts 20°
2026-05-05 22:00 67.43717 -146.12944 11909 ft 165 kts 20°
2026-05-05 22:00 67.44821 -146.12076 11906 ft 165 kts 20°
2026-05-05 22:00 67.45923 -146.11210 11904 ft 165 kts 20°
2026-05-05 22:01 67.47026 -146.10342 11901 ft 165 kts 20°
2026-05-05 22:01 67.48114 -146.09485 11899 ft 165 kts 21°
2026-05-05 22:01 67.49227 -146.08607 11891 ft 165 kts 20°
2026-05-05 22:01 67.50310 -146.07754 11893 ft 165 kts 20°
2026-05-05 22:02 67.51408 -146.06886 11891 ft 165 kts 21°
2026-05-05 22:02 67.52507 -146.06015 11884 ft 165 kts 20°
2026-05-05 22:02 67.53605 -146.05146 11886 ft 165 kts 21°
2026-05-05 22:02 67.54701 -146.04275 11883 ft 165 kts 20°
2026-05-05 22:03 67.55800 -146.03401 11881 ft 165 kts 20°
2026-05-05 22:03 67.56902 -146.02525 11878 ft 165 kts 20°
2026-05-05 22:03 67.58003 -146.01650 11876 ft 165 kts 20°
2026-05-05 22:03 67.59102 -146.00776 11873 ft 165 kts 20°
2026-05-05 22:04 67.60202 -145.99899 11871 ft 165 kts 20°
2026-05-05 22:04 67.61302 -145.99022 11868 ft 165 kts 20°
2026-05-05 22:04 67.62388 -145.98156 11866 ft 165 kts 20°
2026-05-05 22:04 67.63487 -145.97278 11864 ft 165 kts 20°
2026-05-05 22:05 67.64588 -145.96397 11861 ft 165 kts 20°
2026-05-05 22:05 67.65687 -145.95517 11859 ft 165 kts 20°
2026-05-05 22:05 67.66785 -145.94636 11857 ft 165 kts 20°
2026-05-05 22:05 67.67882 -145.93756 11853 ft 165 kts 20°
2026-05-05 22:06 67.68980 -145.92875 11853 ft 165 kts 20°
2026-05-05 22:06 67.70078 -145.91993 11850 ft 165 kts 20°
2026-05-05 22:06 67.71175 -145.91110 11847 ft 165 kts 20°
2026-05-05 22:06 67.72274 -145.90228 11849 ft 165 kts 20°
2026-05-05 22:07 67.73374 -145.89343 11845 ft 165 kts 20°
2026-05-05 22:07 67.74473 -145.88454 11839 ft 165 kts 20°
2026-05-05 22:07 67.75571 -145.87568 11840 ft 165 kts 20°
2026-05-05 22:07 67.76670 -145.86678 11837 ft 165 kts 20°
2026-05-05 22:08 67.77770 -145.85788 11835 ft 165 kts 20°
2026-05-05 22:08 67.78865 -145.84899 11835 ft 165 kts 20°
2026-05-05 22:08 67.79961 -145.84009 11833 ft 165 kts 20°
2026-05-05 22:08 67.81056 -145.83119 11832 ft 165 kts 20°
2026-05-05 22:09 67.82140 -145.82237 11825 ft 165 kts 20°
2026-05-05 22:09 67.83234 -145.81346 11822 ft 164 kts 20°
2026-05-05 22:09 67.84327 -145.80453 11822 ft 164 kts 20°
2026-05-05 22:09 67.85408 -145.79562 11889 ft 160 kts 21°
2026-05-05 22:10 67.86443 -145.78690 11911 ft 147 kts 21°
2026-05-05 22:10 67.87444 -145.77845 11516 ft 155 kts 21°
2026-05-05 22:10 67.88492 -145.76962 11108 ft 161 kts 20°
2026-05-05 22:10 67.89582 -145.76055 10708 ft 167 kts 20°
2026-05-05 22:11 67.90690 -145.75144 10315 ft 170 kts 19°
2026-05-05 22:11 67.91830 -145.74208 9916 ft 173 kts 19°
2026-05-05 22:11 67.92984 -145.73263 9516 ft 174 kts 18°
2026-05-05 22:11 67.94145 -145.72309 9116 ft 175 kts 18°
2026-05-05 22:12 67.95310 -145.71350 8717 ft 176 kts 18°
2026-05-05 22:12 67.96477 -145.70389 8317 ft 176 kts 18°
2026-05-05 22:12 67.97648 -145.69426 7917 ft 176 kts 18°
2026-05-05 22:12 67.98814 -145.68465 7532 ft 175 kts 18°
2026-05-05 22:13 67.99956 -145.67567 7201 ft 161 kts 13°
2026-05-05 22:13 68.01015 -145.67719 6872 ft 146 kts 349°
2026-05-05 22:13 68.01969 -145.68298 6481 ft 137 kts 347°
2026-05-05 22:13 68.02872 -145.68885 6079 ft 131 kts 347°
2026-05-05 22:14 68.03739 -145.69449 5683 ft 128 kts 347°
2026-05-05 22:14 68.04602 -145.70011 5282 ft 126 kts 347°
2026-05-05 22:14 68.05450 -145.70571 4882 ft 125 kts 347°
2026-05-05 22:14 68.06296 -145.70674 4500 ft 119 kts
2026-05-05 22:15 68.07032 -145.69954 4117 ft 108 kts 32°
2026-05-05 22:15 68.07581 -145.68631 3793 ft 106 kts 46°
2026-05-05 22:15 68.08038 -145.67133 3537 ft 104 kts 51°
2026-05-05 22:15 68.08473 -145.65593 3288 ft 103 kts 51°
2026-05-05 22:16 68.08955 -145.64231 3050 ft 100 kts 44°
2026-05-05 22:16 68.09447 -145.62934 2809 ft 98 kts 41°
2026-05-05 22:16 68.09966 -145.61794 2609 ft 95 kts 38°
2026-05-05 22:16 68.10422 -145.60720 2395 ft 80 kts 44°
2026-05-05 22:17 68.10780 -145.59728 2200 ft 71 kts 43°
2026-05-05 22:17 68.11172 -145.58728 2114 ft 76 kts 44°
2026-05-05 22:17 68.11474 -145.57931 2102 ft 46 kts 44°
2026-05-05 22:17 68.11688 -145.57374 2102 ft 42 kts 44°
2026-05-05 22:18 68.11816 -145.57032 2101 ft 13 kts 45°
2026-05-05 22:18 68.11867 -145.56893 2101 ft 12 kts 46°
2026-05-05 22:18 68.11875 -145.56786 2101 ft 3 kts 172°
2026-05-05 22:18 68.11860 -145.56785 2101 ft 6 kts 173°
2026-05-05 22:19 68.11795 -145.56810 2101 ft 11 kts 222°
2026-05-05 22:19 68.11713 -145.57018 2101 ft 13 kts 223°
2026-05-05 22:19 68.11685 -145.57090 2101 ft 0 kts 223°
2026-05-05 22:20 68.11658 -145.57157 2101 ft 17 kts 224°
2026-05-05 22:20 68.11530 -145.57485 2101 ft 31 kts 224°
2026-05-05 22:20 68.11417 -145.57784 2101 ft 12 kts 216°
2026-05-05 22:20 68.11392 -145.57812 2101 ft 5 kts 180°
2026-05-05 22:21 68.11338 -145.57746 2101 ft 4 kts 178°
2026-05-05 22:21 68.11312 -145.57796 2101 ft 10 kts 209°
2026-05-05 22:21 68.11293 -145.57783 2101 ft 0 kts 39°